Location: Kellogg
(38.0159°N, 90.0546°W)
Time: 21:46:31
(UTC+00:00)

Envisat - Pass Details

Date: 13 August 2024
Orbit: 762 x 764 km, 98.3° (Epoch: 08 September)

Event Time Altitude Azimuth Distance (km) Brightness Sun altitude
Rises 08:18:18 0° 26° (NNE) 3,232 7.4 -28.9°
Reaches altitude 10° 08:20:58 10° 39° (NE) 2,301 6.4 -28.6°
Maximum altitude 08:25:12 26° 95° (E) 1,460 4.7 -28.1°
Enters shadow 08:26:55 22° 127° (SE) 1,631 4.7 -27.9°
